Location: Helion Bumpstead
(52.0500°N, 0.4000°E)
Time: 08:19:01
(UTC+00:00)

Cosmos 1674 Rocket - Pass Details

Date: 15 November 2025
Orbit: 595 x 623 km, 82.5° (Epoch: 14 December)

Event Time Altitude Azimuth Distance (km) Brightness Sun altitude
Rises 05:44:13 0° 190° (S) 2,895 7.0 -14.3°
Reaches altitude 10° 05:46:26 10° 190° (S) 1,993 6.2 -14.0°
Maximum altitude 05:50:52 87° 282° (WNW) 632 3.5 -13.3°
Drops below altitude 10° 05:55:19 10° 10° (N) 2,002 6.1 -12.7°
Sets 05:57:34 0° 11° (N) 2,910 7.0 -12.4°
